Date String (YYYY-MM-DD hh:mm:ss) UTC,Instrument flags,Ambient pressure (hPa),Sample flow (lpm),Bypass flow (lpm),Sample temperature (°C),Ambient temperature (°C),ASC tube jacket temperature (°C),LED temperature (°C),Box temperature (°C),Sample RH (%),Span deviation,Mass concentration (μg/m³),Mass concentration (μg/m³),Mass concentration (μg/m³)
DateTimeUTC,F1_M11,P_M11,Q1_M11,Q2_M11,T1_M11,T2_M11,T3_M11,T4_M11,T5_M11,U1_M11,ZSPAN_M11,X0_M11,X2_M11,X1_M11
2022-11-06 18:00:00,,0824.3,5.02,0.00,22.2,20.6,00.0,31.1,24.1,14.8,0000.0,0011.46,0002.80,0001.25
2022-11-06 18:01:00,,0824.3,4.99,0.00,22.2,20.5,00.0,31.1,24.1,14.7,0000.0,0011.16,0002.76,0001.26
2022-11-06 18:02:00,,0824.3,5.00,0.00,22.2,20.5,00.0,31.1,24.1,14.9,0000.0,0011.52,0002.72,0001.27
2022-11-06 18:03:00,,0824.3,5.01,0.00,22.2,20.5,00.0,31.1,24.1,15.1,0000.0,0011.20,0002.70,0001.28
2022-11-06 18:04:00,,0824.2,4.99,0.00,22.2,20.6,00.0,31.1,24.1,15.2,0000.0,0010.84,0002.57,0001.29
2022-11-06 18:05:00,,0824.3,5.01,0.00,22.2,20.6,00.0,31.1,24.1,15.4,0000.0,0010.70,0002.56,0001.30
2022-11-06 18:06:00,,0824.3,4.99,0.00,22.2,20.6,00.0,31.0,24.1,15.1,0000.0,0010.25,0002.52,0001.33
2022-11-06 18:07:00,,0824.4,4.99,0.00,22.2,20.6,00.0,31.0,24.1,15.0,0000.0,0010.86,0002.52,0001.36
2022-11-06 18:08:00,,0824.4,5.02,0.00,22.2,20.6,00.0,31.0,24.0,14.9,0000.0,0011.43,0002.54,0001.40
2022-11-06 18:09:00,,0824.4,4.99,0.00,22.2,20.6,00.0,31.0,24.0,14.9,0000.0,0010.41,0002.56,0001.43
2022-11-06 18:10:00,,0824.4,5.00,0.00,22.1,20.5,00.0,31.0,24.0,15.0,0000.0,0010.25,0002.56,0001.46
2022-11-06 18:11:00,,0824.4,5.01,0.00,22.1,20.5,00.0,31.0,24.0,14.9,0000.0,0009.98,0002.57,0001.49
2022-11-06 18:12:00,,0824.4,4.98,0.00,22.1,20.6,00.0,31.0,24.0,14.8,0000.0,0009.94,0002.63,0001.51
2022-11-06 18:13:00,,0824.4,5.02,0.00,22.1,20.5,00.0,31.0,24.0,14.9,0000.0,0009.17,0002.69,0001.54
2022-11-06 18:14:00,,0824.4,4.99,0.00,22.1,20.5,00.0,31.0,24.0,14.9,0000.0,0009.76,0002.73,0001.57
2022-11-06 18:15:00,,0824.5,5.01,0.00,22.1,20.5,00.0,31.0,24.0,14.9,0000.0,0009.69,0002.78,0001.59
2022-11-06 18:16:00,,0824.4,5.00,0.00,22.1,20.5,00.0,30.9,24.0,15.0,0000.0,0009.68,0002.89,0001.62
2022-11-06 18:17:00,,0824.5,4.99,0.00,22.1,20.6,00.0,30.9,24.0,15.2,0000.0,0009.56,0002.97,0001.63
2022-11-06 18:18:00,,0824.5,5.02,0.00,22.1,20.6,00.0,30.9,24.0,15.1,0000.0,0010.13,0003.00,0001.64
2022-11-06 18:19:00,,0824.5,4.99,0.00,22.1,20.6,00.0,30.9,24.0,15.1,0000.0,0009.95,0003.07,0001.64
2022-11-06 18:20:00,,0824.5,5.00,0.00,22.1,20.7,00.0,30.9,24.0,15.0,0000.0,0010.23,0003.05,0001.63
2022-11-06 18:21:00,,0824.4,5.01,0.00,22.1,20.7,00.0,30.9,24.0,15.3,0000.0,0010.17,0003.04,0001.62
2022-11-06 18:22:00,,0824.4,4.99,0.00,22.1,20.7,00.0,30.9,24.0,15.1,0000.0,0010.28,0003.07,0001.61
2022-11-06 18:23:00,,0824.4,4.99,0.00,22.1,20.7,00.0,30.9,24.0,15.3,0000.0,0010.52,0003.02,0001.62
2022-11-06 18:24:00,,0824.6,5.02,0.00,22.1,20.7,00.0,30.9,24.0,15.3,0000.0,0011.25,0003.06,0001.62
2022-11-06 18:25:00,,0824.4,4.99,0.00,22.1,20.7,00.0,30.9,24.0,15.4,0000.0,0010.80,0003.03,0001.62
2022-11-06 18:26:00,,0824.4,5.00,0.00,22.1,20.7,00.0,30.9,24.0,15.0,0000.0,0010.90,0003.08,0001.63
2022-11-06 18:27:00,,0824.4,5.01,0.00,22.1,20.6,00.0,30.9,24.0,15.0,0000.0,0010.84,0003.05,0001.64
2022-11-06 18:28:00,,0824.5,5.00,0.00,22.1,20.7,00.0,30.9,24.0,15.2,0000.0,0010.53,0003.00,0001.65
2022-11-06 18:29:00,,0824.8,5.00,0.00,22.1,20.6,00.0,30.9,24.0,15.2,0000.0,0009.17,0002.97,0001.65
2022-11-06 18:30:00,,0824.6,5.00,0.00,22.1,20.6,00.0,30.9,24.0,15.3,0000.0,0008.62,0002.94,0001.68
2022-11-06 18:31:00,,0824.5,5.00,0.00,22.1,20.5,00.0,30.9,23.9,15.0,0000.0,0008.89,0003.00,0001.69
2022-11-06 18:32:00,,0824.6,4.98,0.00,22.0,20.5,00.0,30.9,23.9,15.1,0000.0,0009.18,0003.05,0001.71
2022-11-06 18:33:00,,0824.5,5.01,0.00,22.0,20.5,00.0,30.9,23.9,15.3,0000.0,0009.55,0003.02,0001.74
2022-11-06 18:34:00,,0824.6,5.00,0.00,22.0,20.5,00.0,30.9,23.9,15.0,0000.0,0009.45,0003.06,0001.75
2022-11-06 18:35:00,,0824.4,5.00,0.00,22.0,20.4,00.0,30.9,23.9,15.0,0000.0,0009.21,0003.04,0001.75
2022-11-06 18:36:00,,0824.4,5.01,0.00,22.0,20.4,00.0,30.9,23.9,15.2,0000.0,0008.65,0003.10,0001.76
2022-11-06 18:37:00,,0824.4,4.99,0.00,22.0,20.5,00.0,30.9,23.9,15.2,0000.0,0008.69,0003.09,0001.76
2022-11-06 18:38:00,,0824.5,5.00,0.00,22.0,20.5,00.0,30.8,23.9,15.0,0000.0,0008.67,0003.03,0001.76
2022-11-06 18:39:00,,0824.6,5.01,0.00,22.0,20.5,00.0,30.8,23.9,15.2,0000.0,0010.00,0003.03,0001.76
2022-11-06 18:40:00,,0824.4,4.99,0.00,22.0,20.6,00.0,30.8,23.9,15.3,0000.0,0010.36,0003.05,0001.77
2022-11-06 18:41:00,,0824.4,5.00,0.00,22.0,20.5,00.0,30.8,23.9,15.2,0000.0,0010.51,0003.05,0001.76
2022-11-06 18:42:00,,0824.8,5.02,0.00,22.0,20.5,00.0,30.8,23.9,15.0,0000.0,0010.01,0002.98,0001.75
2022-11-06 18:43:00,,0824.7,5.00,0.00,22.0,20.5,00.0,30.8,23.9,15.0,0000.0,0009.73,0002.93,0001.76
2022-11-06 18:44:00,,0824.7,4.99,0.00,22.0,20.5,00.0,30.8,23.9,15.2,0000.0,0009.30,0002.95,0001.75
2022-11-06 18:45:00,,0824.6,5.02,0.00,22.0,20.5,00.0,30.8,23.9,15.0,0000.0,0009.92,0002.99,0001.74
2022-11-06 18:46:00,,0824.4,4.99,0.00,22.0,20.4,00.0,30.8,23.9,14.9,0000.0,0010.05,0002.98,0001.72
2022-11-06 18:47:00,,0824.5,5.00,0.00,22.0,20.4,00.0,30.8,23.8,14.8,0000.0,0010.91,0002.97,0001.72
2022-11-06 18:48:00,,0824.5,5.01,0.00,21.9,20.4,00.0,30.8,23.8,14.8,0000.0,0011.51,0002.99,0001.71
2022-11-06 18:49:00,,0824.6,4.99,0.00,21.9,20.4,00.0,30.8,23.8,14.8,0000.0,0011.65,0003.05,0001.71
2022-11-06 18:50:00,,0824.4,5.00,0.00,21.9,20.4,00.0,30.8,23.8,14.8,0000.0,0010.41,0003.12,0001.70
2022-11-06 18:51:00,,0824.4,5.02,0.00,21.9,20.5,00.0,30.8,23.8,14.8,0000.0,0010.10,0003.14,0001.70
2022-11-06 18:52:00,,0824.4,4.99,0.00,21.9,20.4,00.0,30.8,23.8,14.8,0000.0,0009.80,0003.05,0001.69
2022-11-06 18:53:00,,0824.4,4.99,0.00,21.9,20.4,00.0,30.8,23.8,14.9,0000.0,0009.76,0003.05,0001.69
2022-11-06 18:54:00,,0824.4,5.00,0.00,21.9,20.4,00.0,30.8,23.8,15.0,0000.0,0009.80,0003.08,0001.69
2022-11-06 18:55:00,,0824.4,5.01,0.00,21.9,20.4,00.0,30.8,23.8,14.8,0000.0,0009.48,0003.05,0001.68
2022-11-06 18:56:00,,0824.4,5.00,0.00,21.9,20.4,00.0,30.7,23.8,14.4,0000.0,0008.86,0002.98,0001.68
2022-11-06 18:57:00,,0824.4,5.00,0.00,21.9,20.4,00.0,30.7,23.8,14.3,0000.0,0008.31,0002.93,0001.70
2022-11-06 18:58:00,,0824.4,5.00,0.00,21.9,20.4,00.0,30.7,23.8,14.4,0000.0,0006.98,0002.82,0001.70
2022-11-06 18:59:00,,0824.4,5.01,0.00,21.9,20.4,00.0,30.7,23.8,14.3,0000.0,0007.17,0002.75,0001.69
